Temperature
18 18 18 18 18 18 18 18 18 18 18 18 18 18 18 18 18 18 18 18 18 18 18 18 18 18 17 17 17 17 17 17 17 17 17 17 16 16 16 16 16 16 16
18 18 18 18 18 18 18 18 18 18 18 18 18 18 18 18 18 18 18 18 18 18 18 18 18 18 18 17 17 17 17 17 17 17 17 17 16 16 16 16 16 16 16
18 18 18 18 18 18 18 18 18 18 18 18 18 18 18 18 18 18 18 18 18 18 18 18 18 18 18 18 17 17 17 17 17 17 17 16 16 16 16 16 16 16 16
18 18 18 18 18 18 18 18 18 18 18 18 18 18 18 18 18 18 18 18 18 18 18 18 18 18 18 18 17 17 17 17 17 17 17 16 16 16 16 16 16 16 16
18 18 18 18 18 18 18 18 18 18 18 18 18 18 19 19 18 18 18 18 18 18 18 18 18 18 18 18 17 17 17 17 17 17 16 16 16 16 16 16 16 16 16
18 18 18 18 18 18 18 18 18 18 18 18 19 19 19 19 19 19 18 18 18 18 18 18 18 18 18 17 17 17 17 17 17 17 16 16 16 16 16 16 16 16 16
18 18 18 18 18 18 18 18 18 18 18 18 18 18 18 19 19 19 19 18 18 18 18 18 18 18 17 17 17 17 17 17 17 17 16 16 16 16 16 16 16 16 16
19 18 19 18 18 18 18 18 18 18 18 18 18 18 18 19 19 19 19 18 18 18 18 18 18 17 17 17 17 17 17 17 17 16 16 16 16 16 16 16 16 16 16
19 19 19 18 18 18 18 18 18 18 18 18 18 18 18 18 18 19 19 18 18 18 18 18 18 17 17 17 17 17 17 17 16 16 16 16 16 16 16 16 16 16 16
19 19 19 19 19 19 18 18 18 18 18 18 18 18 18 18 18 18 18 18 18 18 18 18 18 17 17 17 17 17 17 17 16 16 16 16 16 16 16 15 15 15 15
19 19 19 19 19 19 18 18 18 18 18 18 18 18 18 18 18 18 18 18 18 18 18 18 18 17 17 17 17 17 17 17 16 16 16 16 16 16 15 15 15 15 15
19 19 19 19 19 18 18 18 18 18 18 18 18 18 18 18 18 18 18 18 18 18 18 18 17 17 17 17 17 17 17 16 16 16 16 16 16 15 15 15 15 15 15
19 19 19 19 19 18 18 18 18 18 18 18 18 18 18 18 18 18 18 18 18 18 18 18 17 17 17 17 17 17 17 16 16 16 16 16 16 15 15 15 15 15 15
19 19 19 19 18 18 18 18 18 18 18 18 18 18 18 18 18 18 17 17 17 17 18 18 17 17 17 17 17 17 16 16 16 16 16 16 16 15 15 15 15 15 14
19 19 19 18 18 18 18 18 18 18 17 17 17 17 17 17 17 17 17 17 17 17 17 17 17 17 17 17 16 16 16 16 16 16 16 16 16 15 15 15 15 15 15
19 19 18 18 18 18 18 18 18 17 17 17 17 17 17 17 17 17 17 17 17 17 16 17 17 17 17 16 16 16 16 16 16 16 16 16 15 15 15 15 15 15 14
19 18 18 18 18 18 18 18 17 17 17 17 17 17 17 17 17 17 17 17 17 17 16 16 16 16 16 16 16 16 15 15 15 15 15 15 15 15 15 15 15 14 14
18 18 18 18 18 18 18 17 17 17 17 17 16 16 16 16 16 16 16 16 16 16 16 16 16 16 16 16 16 16 15 15 15 15 15 15 15 15 15 15 14 14 14
18 18 18 18 18 17 17 17 17 17 17 17 16 16 16 16 16 16 16 16 16 16 16 15 15 16 16 15 15 15 15 15 15 15 15 15 15 14 14 14 14 14 14
18 18 18 18 18 17 17 17 17 17 17 16 16 16 16 16 16 15 15 15 15 15 15 15 15 15 15 15 15 15 15 15 14 14 14 14 14 14 14 14 14 14 13
18 18 18 18 18 17 17 17 17 16 16 16 16 16 16 16 15 15 15 15 15 15 15 15 15 15 15 15 15 15 14 14 14 14 14 14 14 14 14 14 13 13 13
18 18 18 18 17 17 17 17 17 16 16 16 16 16 15 15 15 15 15 15 15 15 15 15 15 14 14 14 14 14 14 14 14 14 14 14 13 13 13 13 13 13 13
18 18 17 17 17 17 17 16 16 16 16 15 15 15 15 15 15 15 15 15 15 15 15 15 14 14 14 14 14 14 14 14 14 14 13 13 13 13 13 13 13 13 13
17 17 17 17 17 17 17 16 16 16 15 15 15 15 15 15 15 15 15 15 15 15 15 14 14 14 14 14 14 14 13 13 13 13 13 13 13 13 13 13 13 12 12
17 17 17 17 17 17 17 16 16 16 15 15 15 15 15 15 15 14 14 14 14 14 14 14 14 14 14 14 14 13 13 13 13 13 13 13 13 13 13 12 12 12 12
17 17 17 17 16 16 16 16 16 15 15 15 15 15 15 15 15 14 14 14 14 14 14 14 14 14 14 14 13 13 13 13 13 13 13 12 12 12 12 12 12 12 12
Wind_Speed
4 4 3 2 3 3 3 2 2 3 2 1 1 3 3 3 3 6 8 11 11 10 8 8 7 7 6 6 6 6 6 6 7 7 8 8 8 9 9 9 10 10 10
4 3 3 2 2 3 3 2 2 2 2 1 1 2 1 2 3 5 7 9 11 10 9 8 7 7 7 7 6 6 6 6 6 6 7 7 8 9 9 9 10 10 10
4 2 3 2 2 2 3 2 2 1 1 1 1 1 1 1 2 4 6 7 8 9 10 9 9 8 7 7 7 7 7 7 6 5 5 6 7 9 9 9 9 10 10
3 2 2 2 1 1 1 1 1 1 1 1 1 0 1 1 1 2 4 6 6 7 9 10 10 9 8 7 7 6 6 6 6 6 6 6 6 7 8 8 8 8 9
3 2 2 1 1 1 1 2 3 2 1 1 0 1 1 1 1 1 2 4 6 6 7 9 11 10 9 8 7 7 7 6 6 6 5 5 5 6 7 7 7 7 7
2 2 1 1 1 2 2 2 2 1 0 0 1 1 0 1 1 1 1 2 4 6 6 7 8 8 9 8 7 7 7 7 6 6 6 6 6 6 7 7 8 8 7
1 2 1 1 1 1 2 2 1 1 0 1 0 1 1 1 1 2 1 1 1 3 5 6 6 5 6 9 9 8 8 7 7 7 7 7 7 8 8 8 8 7 7
2 2 1 1 1 1 1 1 1 1 1 0 1 1 1 1 1 1 2 2 1 1 2 4 5 4 5 6 7 9 8 7 7 7 7 7 8 8 8 8 8 8 9
2 2 1 1 1 0 0 1 1 2 2 2 1 1 0 1 1 1 1 1 2 1 1 2 3 3 4 5 6 8 9 8 7 7 6 7 7 7 8 8 8 8 8
2 2 1 1 1 1 1 2 1 2 2 2 1 1 1 0 1 1 2 0 1 2 1 1 2 4 4 5 6 8 9 8 6 6 5 5 5 6 6 7 8 8 8
2 1 2 1 0 1 1 2 2 3 2 3 3 2 1 1 2 2 2 1 1 1 1 1 1 3 4 5 6 7 9 8 7 5 5 5 5 5 5 6 7 7 8
2 2 2 1 0 1 1 1 2 2 2 3 3 3 2 1 1 1 2 2 1 1 2 1 1 2 3 4 5 6 8 7 6 5 5 5 5 5 5 5 6 7 7
2 1 1 1 1 1 1 1 1 2 2 3 3 3 3 3 2 2 1 2 2 2 1 2 2 2 2 4 6 7 7 7 6 5 5 5 5 5 5 5 6 6 6
1 2 1 1 0 1 1 1 1 1 1 2 3 3 3 3 3 2 1 1 2 2 1 2 1 1 2 5 6 6 5 7 6 5 5 4 4 5 5 5 6 6 6
1 2 1 1 1 0 1 1 1 2 2 2 2 2 3 3 3 3 3 2 2 2 3 2 1 1 2 4 7 5 4 6 7 6 5 5 5 5 6 6 6 6 6
1 1 0 0 1 1 1 1 2 1 2 2 2 2 3 3 4 3 3 3 2 2 3 2 2 1 0 1 5 4 3 5 6 5 5 5 5 5 5 6 6 6 6
1 1 1 1 1 1 1 1 2 2 2 2 3 2 3 3 3 4 3 3 3 2 2 2 2 1 1 1 2 3 4 5 5 6 6 6 5 5 5 5 5 5 5
2 1 1 1 2 1 1 1 2 2 2 2 2 3 3 3 4 4 4 4 3 3 2 3 3 2 2 2 2 3 3 3 4 6 7 6 5 5 4 4 5 5 5
2 2 2 2 2 2 1 2 2 2 3 2 2 3 3 3 4 4 4 4 4 3 2 3 4 2 2 2 2 2 2 2 3 5 6 6 5 5 5 6 6 6 6
3 2 2 2 2 2 1 1 2 2 2 2 2 3 3 3 3 4 4 4 4 4 3 3 3 3 2 2 1 2 2 2 2 2 3 5 6 6 6 5 5 5 5
3 2 2 2 2 2 2 1 2 3 2 3 3 2 2 2 3 4 4 4 4 4 3 3 3 2 2 2 3 3 2 2 2 1 1 2 3 3 3 4 5 5 5
2 2 3 2 2 4 3 2 3 3 3 3 3 2 3 2 2 3 4 4 4 4 4 4 3 3 3 2 2 3 3 2 2 1 1 2 1 2 2 3 5 6 6
2 3 3 3 3 2 2 2 3 3 3 3 2 2 4 3 2 3 4 4 4 5 5 4 4 3 3 3 2 3 3 3 3 2 2 3 2 2 2 3 6 7 7
3 3 3 3 3 3 3 3 4 4 4 3 2 2 2 2 3 3 4 3 3 4 4 3 3 4 3 2 2 4 4 4 4 2 1 3 2 2 2 2 7 8 7
3 3 3 3 3 3 4 4 4 3 3 3 3 3 3 3 4 4 3 3 3 3 3 2 3 3 3 4 3 3 3 3 4 2 1 2 2 2 1 1 4 7 7
3 3 3 3 3 3 4 4 3 3 3 4 4 4 5 4 3 3 3 3 4 4 4 3 2 3 4 3 3 3 3 4 3 2 1 1 2 2 2 2 2 4 4
Wind_Direction
68 68 66 70 75 90 104 94 90 96 90 94 103 114 132 137 122 122 139 154 157 163 170 177 183 189 191 192 193 199 209 215 220 221 222 224 229 234 233 233 232 230 231
81 74 71 50 62 76 87 87 92 113 122 112 106 91 96 132 139 138 143 156 166 170 176 182 185 192 192 196 203 208 214 218 219 220 223 223 227 231 233 232 233 234 232
100 106 89 63 52 75 86 90 69 70 107 109 107 119 140 143 149 149 153 158 168 178 182 183 185 189 193 200 206 210 209 214 218 223 227 234 236 236 234 233 233 235 232
81 73 97 93 88 87 81 73 64 38 62 66 76 81 106 105 124 165 160 161 166 175 185 191 191 193 196 202 206 208 206 210 215 225 234 239 245 239 233 236 235 234 231
82 71 70 78 86 57 42 50 61 29 42 73 103 181 182 171 180 209 167 161 168 173 171 188 197 199 203 205 207 208 206 207 213 219 224 235 242 234 227 232 235 235 231
90 105 106 69 58 52 49 46 48 357 337 245 335 33 229 196 191 191 186 181 172 172 172 172 186 200 202 203 203 206 207 208 210 217 224 234 238 234 231 233 235 235 228
92 105 47 71 95 65 52 17 12 291 241 183 324 300 263 240 193 181 186 193 166 152 154 163 167 174 185 205 207 207 209 211 212 217 226 234 235 235 232 234 233 230 228
166 135 117 16 99 128 84 289 315 314 299 271 280 287 290 334 302 213 176 183 179 168 159 167 159 167 176 166 198 206 209 212 217 221 228 237 241 237 233 231 229 231 232
133 70 61 40 356 56 350 305 333 300 293 290 283 283 285 285 313 308 259 166 166 183 195 142 136 152 180 162 171 192 202 208 216 224 230 238 243 237 238 235 232 234 237
153 153 135 80 353 21 358 305 30 310 285 291 282 246 219 195 275 314 300 297 193 195 204 201 157 171 163 155 156 165 183 194 208 221 233 239 245 243 242 239 238 240 241
162 160 141 147 349 13 2 17 7 335 336 338 326 313 292 239 243 237 276 283 270 223 198 194 172 148 163 157 149 154 170 183 195 211 226 239 247 250 246 243 244 249 251
160 142 146 146 66 14 357 4 333 348 354 342 327 323 316 307 293 271 264 266 265 243 201 200 220 170 159 144 152 155 165 177 190 203 220 235 243 253 254 251 247 251 254
141 125 121 105 48 17 315 335 325 350 1 341 326 325 325 314 310 316 283 291 296 268 210 220 206 167 152 130 134 148 163 175 188 205 218 231 240 247 250 248 250 253 253
99 119 117 114 105 315 324 322 310 319 338 314 316 332 321 314 309 311 289 291 298 298 273 247 213 160 151 140 150 163 169 180 192 207 220 229 239 246 247 245 250 254 253
128 105 122 160 203 230 318 323 314 319 320 308 312 329 318 303 304 308 301 299 277 294 297 283 296 186 169 147 158 173 166 185 199 209 224 233 241 245 246 247 248 250 253
16 98 137 257 270 252 241 261 278 271 291 309 310 323 320 320 325 312 311 304 281 265 283 286 283 272 196 156 167 172 168 187 198 213 223 223 233 236 237 239 238 245 250
275 243 252 267 262 258 276 283 290 299 292 299 306 316 316 315 318 317 315 310 306 297 282 299 309 313 321 316 179 205 204 189 196 213 204 210 223 229 231 234 237 242 244
237 232 245 272 271 261 247 262 277 291 293 295 303 310 313 319 322 314 315 311 311 308 288 285 289 274 252 235 219 229 235 214 195 199 201 206 211 219 217 225 230 232 233
237 242 235 245 258 265 260 268 271 279 284 294 299 295 306 314 315 315 309 304 304 304 300 291 286 281 267 255 253 260 258 254 229 194 189 192 203 205 213 222 227 227 227
228 236 245 248 243 244 263 273 285 275 287 302 303 301 304 304 308 307 300 301 303 298 287 282 280 271 275 276 261 256 267 270 272 240 184 189 200 211 220 222 225 223 219
233 234 239 253 248 229 253 251 264 259 266 279 284 287 298 325 333 322 310 316 312 301 292 280 278 284 298 315 297 282 275 264 267 273 220 201 191 201 211 221 216 213 209
243 245 242 239 248 257 252 231 243 265 254 255 260 264 256 267 292 294 301 309 305 296 296 293 293 294 298 302 300 300 300 300 292 293 294 273 206 213 204 196 203 202 205
253 255 250 234 241 256 257 254 265 256 264 264 254 263 276 287 282 290 285 278 288 295 282 275 286 288 293 303 305 301 305 299 283 281 294 283 269 255 215 200 185 190 194
248 249 253 250 248 256 249 244 260 247 261 254 246 250 265 285 298 309 300 302 301 308 291 268 266 277 283 291 277 274 274 272 268 276 283 277 274 267 258 180 186 186 189
253 250 254 246 241 250 247 238 235 246 250 247 238 247 252 250 281 302 293 297 298 294 294 271 252 273 282 294 303 297 292 285 277 268 274 276 275 276 253 210 196 197 196
247 250 254 254 244 239 234 220 217 249 259 256 246 237 243 247 266 277 276 282 287 292 297 297 284 270 260 264 274 272 281 281 283 279 260 272 274 289 275 234 196 191 200
Height
1527 1528 1528 1528 1529 1530 1530 1530 1530 1531 1532 1532 1534 1534 1535 1536 1537 1536 1537 1537 1538 1538 1538 1538 1538 1539 1539 1540 1540 1541 1541 1542 1543 1543 1544 1544 1545 1546 1547 1547 1548 1549 1550
1529 1530 1530 1530 1531 1532 1532 1532 1532 1533 1533 1534 1535 1535 1536 1536 1537 1537 1537 1537 1537 1538 1538 1538 1538 1538 1539 1539 1539 1539 1540 1540 1541 1541 1542 1542 1543 1543 1544 1545 1546 1546 1547
1531 1531 1531 1532 1532 1533 1533 1533 1533 1534 1535 1535 1535 1536 1536 1537 1537 1537 1537 1537 1537 1537 1537 1537 1537 1538 1538 1538 1537 1537 1538 1538 1539 1539 1540 1540 1540 1541 1541 1542 1543 1543 1544
1532 1532 1533 1533 1533 1534 1534 1534 1534 1535 1535 1536 1536 1536 1536 1536 1536 1537 1537 1536 1536 1536 1536 1536 1536 1536 1536 1536 1536 1536 1536 1536 1536 1537 1537 1537 1537 1537 1538 1539 1540 1540 1541
1534 1534 1534 1534 1534 1534 1535 1535 1535 1535 1535 1535 1535 1536 1536 1536 1536 1536 1536 1536 1535 1535 1535 1535 1535 1535 1535 1535 1535 1534 1534 1534 1535 1535 1535 1535 1535 1535 1536 1536 1537 1537 1538
1535 1535 1535 1535 1535 1535 1535 1535 1535 1535 1535 1535 1536 1535 1535 1535 1535 1535 1535 1535 1534 1534 1534 1534 1534 1534 1533 1533 1533 1533 1533 1533 1533 1533 1533 1533 1533 1533 1533 1533 1534 1534 1535
1536 1536 1536 1536 1535 1535 1535 1535 1535 1535 1535 1535 1535 1535 1534 1534 1534 1534 1534 1534 1534 1534 1533 1533 1532 1532 1532 1532 1531 1531 1531 1531 1531 1531 1531 1531 1531 1531 1531 1531 1531 1531 1532
1536 1537 1536 1536 1536 1535 1535 1535 1535 1535 1535 1535 1535 1534 1534 1535 1533 1534 1533 1533 1533 1533 1532 1532 1531 1530 1530 1530 1530 1529 1529 1529 1529 1529 1529 1529 1528 1528 1528 1528 1528 1528 1529
1537 1536 1536 1536 1535 1536 1535 1535 1534 1534 1534 1534 1534 1534 1534 1533 1533 1533 1533 1532 1532 1531 1531 1531 1530 1530 1528 1528 1528 1528 1528 1527 1527 1527 1527 1526 1526 1526 1526 1525 1525 1525 1526
1536 1536 1536 1535 1535 1535 1535 1534 1534 1534 1534 1533 1533 1533 1533 1533 1533 1532 1532 1531 1531 1530 1530 1530 1529 1528 1527 1527 1526 1526 1525 1525 1525 1525 1525 1524 1524 1523 1523 1523 1523 1523 1523
1536 1536 1535 1535 1535 1534 1534 1534 1533 1533 1533 1533 1533 1532 1532 1532 1532 1532 1531 1531 1530 1529 1529 1528 1528 1527 1526 1525 1524 1524 1523 1523 1523 1523 1522 1522 1521 1521 1520 1520 1520 1520 1520
1536 1535 1535 1534 1534 1534 1533 1533 1532 1532 1532 1532 1531 1531 1531 1531 1530 1530 1529 1529 1528 1528 1527 1526 1526 1525 1525 1524 1523 1522 1521 1521 1521 1520 1520 1519 1519 1518 1518 1517 1517 1517 1517
1535 1535 1534 1534 1533 1533 1533 1532 1532 1531 1531 1530 1530 1530 1530 1529 1529 1529 1528 1527 1527 1526 1526 1525 1524 1524 1523 1522 1521 1520 1520 1519 1519 1518 1517 1517 1516 1516 1515 1515 1514 1514 1514
1534 1534 1533 1533 1532 1532 1532 1532 1531 1530 1530 1529 1529 1529 1528 1528 1528 1527 1527 1527 1525 1525 1524 1524 1523 1523 1522 1521 1520 1519 1518 1518 1517 1516 1515 1514 1514 1513 1513 1512 1511 1511 1510
1533 1533 1532 1532 1531 1531 1531 1530 1530 1529 1529 1528 1528 1527 1527 1526 1526 1526 1526 1525 1525 1524 1523 1522 1522 1521 1520 1519 1518 1517 1516 1515 1515 1514 1513 1512 1511 1510 1510 1509 1508 1508 1507
1532 1532 1531 1531 1530 1530 1530 1529 1529 1528 1528 1527 1527 1526 1525 1525 1524 1524 1524 1523 1523 1522 1521 1520 1520 1520 1519 1518 1516 1515 1514 1513 1512 1511 1510 1509 1508 1507 1507 1506 1505 1505 1504
1531 1530 1530 1530 1530 1529 1529 1528 1528 1527 1527 1526 1525 1525 1524 1523 1523 1522 1521 1521 1521 1520 1519 1518 1518 1517 1517 1516 1514 1513 1511 1510 1509 1508 1507 1506 1505 1504 1503 1502 1502 1501 1501
1529 1529 1529 1528 1528 1527 1527 1526 1526 1525 1525 1524 1524 1523 1522 1522 1521 1520 1519 1519 1518 1518 1517 1515 1515 1514 1514 1513 1512 1510 1509 1508 1507 1506 1505 1503 1502 1501 1500 1499 1499 1498 1497
1526 1527 1527 1526 1526 1525 1525 1524 1524 1523 1523 1522 1522 1521 1520 1519 1518 1518 1517 1516 1516 1515 1514 1513 1512 1512 1511 1510 1509 1508 1507 1506 1505 1503 1502 1500 1499 1498 1497 1496 1495 1494 1494
1524 1524 1524 1524 1523 1523 1522 1522 1521 1521 1520 1520 1519 1518 1518 1517 1516 1515 1514 1514 1513 1512 1511 1510 1509 1509 1508 1507 1506 1505 1504 1503 1502 1501 1499 1498 1496 1496 1494 1493 1492 1491 1490
1522 1521 1521 1521 1520 1520 1519 1519 1519 1518 1518 1517 1517 1516 1515 1515 1513 1513 1512 1511 1510 1509 1508 1507 1506 1506 1505 1504 1503 1502 1501 1500 1499 1498 1497 1495 1494 1493 1491 1490 1489 1488 1487
1519 1519 1518 1518 1517 1517 1517 1516 1516 1515 1515 1514 1514 1513 1513 1512 1511 1510 1509 1508 1507 1506 1505 1504 1504 1503 1502 1501 1500 1499 1498 1496 1495 1495 1494 1493 1491 1490 1489 1487 1486 1485 1484
1517 1516 1516 1515 1514 1514 1514 1513 1513 1512 1512 1512 1511 1511 1510 1509 1508 1507 1506 1505 1504 1503 1503 1502 1500 1499 1499 1498 1497 1495 1494 1494 1493 1492 1491 1489 1489 1488 1486 1485 1484 1483 1481
1514 1513 1513 1512 1511 1511 1511 1510 1510 1509 1509 1508 1508 1508 1507 1506 1505 1504 1503 1501 1500 1500 1499 1498 1497 1496 1495 1495 1494 1493 1492 1491 1490 1489 1488 1487 1486 1485 1484 1482 1481 1480 1478
1511 1510 1510 1509 1508 1508 1508 1507 1507 1506 1505 1505 1505 1504 1504 1503 1502 1501 1500 1498 1497 1496 1496 1495 1494 1493 1492 1492 1491 1490 1489 1488 1486 1485 1485 1485 1483 1482 1481 1479 1478 1477 1476
1508 1507 1507 1506 1505 1505 1504 1504 1503 1503 1502 1502 1501 1501 1500 1499 1498 1498 1497 1496 1494 1494 1493 1492 1491 1490 1489 1488 1487 1487 1486 1485 1484 1483 1482 1482 1480 1479 1478 1477 1475 1475 1473